Location: D�rnast
(49.6426°N, 11.9755°E)
Time: 03:20:00
(UTC+00:00)

Cosmos 1300 - Pass Details

Date: 24 January 2021
Orbit: 511 x 512 km, 82.5° (Epoch: 24 February)

Event Time Altitude Azimuth Distance (km) Brightness Sun altitude
Rises 16:19:14 0° 348° (NNW) 2,641 6.2 -4.4°
Reaches altitude 10° 16:21:23 10° 347° (NNW) 1,749 5.3 -4.7°
Maximum altitude 16:25:13 75° 262° (W) 538 3.0 -5.3°
Drops below altitude 10° 16:29:00 10° 178° (S) 1,733 5.6 -5.9°
Sets 16:31:07 0° 176° (S) 2,613 6.5 -6.2°
